This is the latest recevied weather packets stored in our database for station/object W8RSN-13. If no packets are shown the sender has not sent any weather packets the latest 10 day(s).
| Time | Temp. | Humidity | Pressure | Rain* | Wind** | Luminosity | Snow |
|---|---|---|---|---|---|---|---|
| 1788422670 | 17.22° C | 68% | 1017.4 hPa | - | - | - | - |
| 1788422369 | 17.22° C | 68% | 1017.5 hPa | - | - | - | - |
| 1788422068 | 17.22° C | 69% | 1017.5 hPa | - | - | - | - |
| 1788421767 | 17.22° C | 69% | 1017.4 hPa | - | - | - | - |
| 1788421466 | 17.78° C | 69% | 1017.5 hPa | - | - | - | - |
| 1788421165 | 17.78° C | 67% | 1017.5 hPa | - | - | - | - |
| 1788420865 | 17.78° C | 68% | 1017.5 hPa | - | - | - | - |
| 1788420564 | 18.33° C | 67% | 1017.3 hPa | - | - | - | - |
| 1788420263 | 18.33° C | 66% | 1017.4 hPa | - | - | - | - |
| 1788419962 | 18.33° C | 65% | 1017.3 hPa | - | - | - | - |
| 1788419661 | 17.78° C | 65% | 1017.3 hPa | - | - | - | - |
| 1788419360 | 17.78° C | 65% | 1017.3 hPa | - | - | - | - |
| 1788419059 | 17.78° C | 64% | 1017.3 hPa | - | - | - | - |
| 1788418758 | 17.78° C | 63% | 1017.3 hPa | - | - | - | - |
| 1788418458 | 18.33° C | 62% | 1017.3 hPa | - | - | - | - |
| 1788418160 | 18.33° C | 62% | 1017.3 hPa | - | - | - | - |
| 1788417856 | 18.33° C | 58% | 1017.3 hPa | - | - | - | - |
| 1788417575 | 18.89° C | 56% | 1017.4 hPa | - | - | - | - |
| 1788417274 | 18.33° C | 62% | 1017.3 hPa | - | - | - | - |
| 1788416973 | 18.33° C | 62% | 1017.3 hPa | - | - | - | - |
| 1788416672 | 18.89° C | 61% | 1017.3 hPa | - | - | - | - |
| 1788416371 | 18.89° C | 60% | 1017.2 hPa | - | - | - | - |
| 1788416070 | 18.89° C | 60% | 1017.3 hPa | - | - | - | - |
| 1788415770 | 18.89° C | 56% | 1017.3 hPa | - | - | - | - |
| 1788415469 | 18.89° C | 54% | 1017.2 hPa | - | - | - | - |
* Rain since midnight (hover to see other rain measurements)
** Current wind speed in m/s (hover to see current wind gust speed)